Ithaca, NY

10:08 AM EST on December 18, 2017 (GMT -0500)
Tompkins County

Weather History for KITH - September, 2013

Change the Weather History Date:

Monday, September 16, 2013

  Actual Average Record
Temperature  
Mean Temperature 47 °F -  
Max Temperature 57 °F 70 °F 97 °F (1939)
Min Temperature 37 °F 48 °F 27 °F (1964)
Degree Days  
Heating Degree Days 18    
Moisture  
Dew Point 48 °F    
Average Humidity 89    
Maximum Humidity 100    
Minimum Humidity 74    
Precipitation  
Precipitation 0.00 in - - ()
Sea Level Pressure  
Sea Level Pressure 30.20 in    
Wind  
Wind Speed 5 mph (NNW)    
Max Wind Speed 13 mph    
Max Gust Speed 17 mph    
Visibility 10 miles    
Events Rain    
Averages and records for this station are not official NWS values.
T = Trace of Precipitation, MM = Missing Value Source: NWS Daily Summary

Daily Weather History Graph

Daily Weather History Graph

Search for Another Location

Airport or City:

Trip Planner

Search our weather history database for the weather conditions in past years. The results will help you decide how hot, cold, wet, or windy it might be!

Date:

Astronomy

Sep. 16, 2013 Rise Set
Actual Time 6:47 AM EDT 7:13 PM EDT
Civil Twilight 6:18 AM EDT 7:41 PM EDT
Nautical Twilight 5:45 AM EDT 8:14 PM EDT
Astronomical Twilight 5:11 AM EDT 8:48 PM EDT
Moon 5:23 PM EDT (9/16) 3:27 AM EDT (9/16)
Length of Visible Light 13h 22m
Length of Day
12h 26m
Waxing Gibbous, 90% of the Moon is Illuminated
Sep 16
Waxing Gibbous
Sep 19
Full
Sep 26
Last Quarter
Oct 4
New
Oct 11
First Quarter

Hourly Weather History & Observations

Time (EDT) Temp. Windchill Dew Point Humidity Pressure Visibility Wind Dir Wind Speed Gust Speed Precip Events Conditions
12:56 AM 54.9 °F - 50.9 °F 86% 30.12 in 10.0 mi North 6.9 mph - 0.00 in Rain Light Rain
1:19 AM 55.4 °F - 51.8 °F 88% 30.12 in 10.0 mi North 4.6 mph - 0.00 in Rain Light Rain
1:39 AM 53.6 °F - 51.8 °F 94% 30.12 in 10.0 mi NNW 11.5 mph 17.3 mph 0.00 in Rain Light Rain
1:56 AM 52.9 °F - 50.0 °F 90% 30.13 in 10.0 mi NNW 9.2 mph - 0.00 in Rain Light Rain
2:00 AM 53.6 °F - 50.0 °F 88% 30.12 in 10.0 mi North 5.8 mph - 0.00 in Rain Light Rain
2:27 AM 51.8 °F - 50.0 °F 94% 30.12 in 10.0 mi Calm Calm - 0.00 in Rain Light Rain
2:56 AM 50.9 °F - 50.0 °F 97% 30.12 in 10.0 mi Calm Calm - 0.00 in Rain Light Rain
3:56 AM 50.9 °F - 50.0 °F 97% 30.11 in 10.0 mi Calm Calm - 0.00 in Rain Light Rain
4:56 AM 50.9 °F - 50.0 °F 97% 30.10 in 10.0 mi Calm Calm - 0.00 in   Overcast
5:56 AM 50.9 °F - 50.0 °F 97% 30.12 in 10.0 mi Calm Calm - N/A   Overcast
6:27 AM 51.8 °F - 50.0 °F 94% 30.12 in 10.0 mi Calm Calm - N/A   Overcast
6:56 AM 52.0 °F - 50.9 °F 96% 30.14 in 6.0 mi Calm Calm - N/A   Overcast
7:56 AM 52.0 °F - 50.9 °F 96% 30.14 in 10.0 mi Calm Calm - N/A   Mostly Cloudy
8:56 AM 56.8 °F - 50.0 °F 78% 30.15 in 10.0 mi West 5.8 mph - N/A   Scattered Clouds
9:56 AM 57.9 °F - 50.9 °F 77% 30.17 in 10.0 mi NW 8.1 mph - N/A   Mostly Cloudy
10:56 AM 55.9 °F - 50.9 °F 83% 30.17 in 10.0 mi NNW 6.9 mph - N/A   Overcast
11:56 AM 55.9 °F - 52.9 °F 89% 30.18 in 10.0 mi NNW 9.2 mph - N/A   Overcast
12:56 PM 55.9 °F - 50.9 °F 83% 30.19 in 10.0 mi NNW 8.1 mph - N/A   Overcast
12:58 PM 55.4 °F - 51.8 °F 88% 30.19 in 10.0 mi NNW 8.1 mph - N/A   Overcast
1:56 PM 54.9 °F - 52.0 °F 90% 30.21 in 10.0 mi NNW 6.9 mph - 0.00 in Rain Light Rain
2:56 PM 54.0 °F - 50.0 °F 86% 30.22 in 10.0 mi NNW 9.2 mph - 0.00 in   Overcast
3:56 PM 52.9 °F - 47.8 °F 83% 30.24 in 10.0 mi NNW 9.2 mph - N/A   Overcast
4:56 PM 52.0 °F - 46.9 °F 83% 30.26 in 10.0 mi North 10.4 mph - N/A   Overcast
5:56 PM 50.0 °F - 45.0 °F 83% 30.28 in 10.0 mi North 12.7 mph - N/A   Overcast
6:56 PM 48.9 °F - 41.0 °F 74% 30.30 in 10.0 mi NNW 10.4 mph - N/A   Mostly Cloudy
7:49 PM 44.6 °F 40.7 °F 39.2 °F 81% 30.31 in 10.0 mi North 6.9 mph - N/A   Scattered Clouds
7:56 PM 45.0 °F 41.2 °F 39.9 °F 82% 30.33 in 10.0 mi North 6.9 mph - N/A   Scattered Clouds
8:56 PM 43.0 °F - 38.8 °F 85% 30.35 in 10.0 mi Calm Calm - N/A   Scattered Clouds
9:56 PM 38.8 °F - 38.8 °F 100% 30.37 in 10.0 mi Calm Calm - N/A   Clear
10:56 PM 37.9 °F - 37.9 °F 100% 30.38 in 10.0 mi Calm Calm - N/A   Partly Cloudy
11:56 PM 37.9 °F 35.5 °F 37.9 °F 100% 30.40 in 10.0 mi NNE 3.5 mph - N/A   Clear